Tracking 34085 objects as of 13-May-2026
HD Live streaming from Space Station
objects crossing your sky now

STARLINK-37079

Track STARLINK-37079 now!
10-day predictions
STARLINK-37079 is classified as:


NORAD ID: 68186
Int'l Code: 2026-050V
Perigee: 463.8 km
Apogee: 464.5 km
Inclination: 53.2 °
Period: 93.7 minutes
Semi major axis: 6835 km
RCS: Unknown
Launch date: March 14, 2026
Source: United States (US)
Launch site: AIR FORCE EASTERN TEST RANGE (AFETR)
Your satellite tracking list
Your tracking list is empty




NASA's NSSDC Master Catalog

Two Line Element Set (TLE):
1 68186U 26050V   26132.83335647 -.01317284  00000-0 -40115-1 0  9995
2 68186  53.1604 328.5418 0000518  75.7231  74.1829 15.36316625  5767
Source of the keplerian elements: AFSPC